ראשי / חיפושים אחרונים

חיפושים אחרונים

לוחית
סוג רכב
דגם
שנה
תאריך חיפוש
שעת חיפוש
77780803 יונדאי קוריאה הדרומית KONA HYBRID 2024 01/09/2026 23:08:53
5933489 ימהה יפן - 2017 01/09/2026 23:08:52
48453104 צ'רי סין TIGGO7 PRO PHEV 2025 01/09/2026 23:08:51
53902104 מ.ג סין ZS 2026 01/09/2026 23:08:51
58680002 אאודי סלובקיה Q7 2021 01/09/2026 23:08:48
8232665 מזדה יפן MAZDA 5 2009 01/09/2026 23:08:46
80248501 ג'אנסטיל ישראל - 2019 01/09/2026 23:08:44
17151304 ב מ וו גרמניה I5 M60 XDRIVE 2024 01/09/2026 23:08:44
30300801 מזדה תאילנד MAZDA 2 2018 01/09/2026 23:08:43
5320754 סקודה צ'כיה OCTAVIA 2015 01/09/2026 23:08:42
58395202 ימהה יפן - 2021 01/09/2026 23:08:41
1667066 מזדה יפן MAZDA 3 2008 01/09/2026 23:08:39
24157301 הונדה יפן JAZZ 2018 01/09/2026 23:08:38
42318403 יונדאי טורקיה I20 2023 01/09/2026 23:08:37
87483603 מ.ג סין MG4 2025 01/09/2026 23:08:36
4652483 פורד ספרד - 1983 01/09/2026 23:08:34
65352604 ג'י.אמ.סי ארה - 2026 01/09/2026 23:08:34
3782311 יונדאי הודו I10 2013 01/09/2026 23:08:33
1875356 ניסאן ספרד - 2004 01/09/2026 23:08:33
27273102 יונדאי טורקיה I20 2020 01/09/2026 23:08:32
76694804 סובארו יפן CROSSTREK 2026 01/09/2026 23:08:32
1371973 יונדאי צ'כיה I30 2010 01/09/2026 23:08:31
25527203 מרצדס ארהב" GLS400D 4MATIC 2023 01/09/2026 23:08:30
13305504 סקודה צ'כיה OCTAVIA FL 2025 01/09/2026 23:08:27
72414701 שברולט מקסיקו BLAZER 2020 01/09/2026 23:08:24
64202101 סיטרואן ספרד C3 AIRCROSS 2019 01/09/2026 23:08:21
12489001 טויוטה טורקיה COROLLA 2018 01/09/2026 23:08:20
77550303 טסלה סין MODEL 3 2024 01/09/2026 23:08:19
70133701 קיה קוריאה הדרומית STONIC 2019 01/09/2026 23:08:18
43628001 סיטרואן ספרד BERLINGO 2018 01/09/2026 23:08:18
58180101 וולבו בלגיה XC40 T4 2018 01/09/2026 23:08:17
27700701 פרארי איטליה GTC4LUSSO T 2017 01/09/2026 23:08:15
25527203 מרצדס ארהב" GLS400D 4MATIC 2023 01/09/2026 23:08:15
4744280 סקודה צ'כיה NEW SUPERB 2017 01/09/2026 23:08:14
38984401 אאודי גרמניה A8 LONG 2018 01/09/2026 23:08:12
10617601 טויוטה טורקיה COROLLA 2017 01/09/2026 23:08:05
1784628 בומברדיה קנדה - 2021 01/09/2026 23:08:04
59511701 מזדה יפן MAZDA 3 2019 01/09/2026 23:07:59
37622003 שברולט קוריאה הדרומית TRAX 2025 01/09/2026 23:07:57
8282812 סיטרואן סלובקיה C3 PICASSO 2013 01/09/2026 23:07:56
70133701 קיה קוריאה הדרומית STONIC 2019 01/09/2026 23:07:54
1314423 סובארו יפן אימפרזה 0061 TA 1998 01/09/2026 23:07:51
5608130 טויוטה טורקיה COROLLA 2014 01/09/2026 23:07:50
15356703 ב מ וו גרמניה 318I 2022 01/09/2026 23:07:48
1030010 טויוטה יפן COROLLA 2001 01/09/2026 23:07:46
55138401 מרצדס ארהב" GLE350D 4MATIC 2019 01/09/2026 23:07:46
1706128 בומברדיה קנדה - 2020 01/09/2026 23:07:44
9944478 ימהה יפן - 2012 01/09/2026 23:07:44
1294162 טויוטה טורקיה COROLLA 2007 01/09/2026 23:07:43
9759173 רם אור קוגוט - 2012 01/09/2026 23:07:41
3889809 טויוטה יפן - 1993 01/09/2026 23:07:40
4570757 ניסאן בריטניה ALMERA 2004 01/09/2026 23:07:38
67866701 רנו ספרד KADJAR 2019 01/09/2026 23:07:38
58180101 וולבו בלגיה XC40 T4 2018 01/09/2026 23:07:37
58180101 וולבו בלגיה XC40 T4 2018 01/09/2026 23:07:37
6940055 יונדאי קוריאה הדרומית SANTA FE 2017 01/09/2026 23:07:36
12489001 טויוטה טורקיה COROLLA 2018 01/09/2026 23:07:35
58180101 וולבו בלגיה XC40 T4 2018 01/09/2026 23:07:34
2018961 מזדה יפן MAZDA 3 2007 01/09/2026 23:07:34
1292037 לקסוס יפן LEXUS NX200T 2016 01/09/2026 23:07:33
2938831 יונדאי טורקיה I20 2014 01/09/2026 23:07:32
19494102 טויוטה טורקיה C-HR HYBRID 2020 01/09/2026 23:07:32
42998704 טויוטה יפן COROLLA CROSS 2025 01/09/2026 23:07:30
25527203 מרצדס ארהב" GLS400D 4MATIC 2023 01/09/2026 23:07:27
8348080 קרייזלר ארהב" WRANGLER 2017 01/09/2026 23:07:27
84187202 סיטרואן ספרד C4 SPACETOURER 2022 01/09/2026 23:07:25
89555503 טויוטה יפן LAND CRUISER 2025 01/09/2026 23:07:25
30347403 וולבו בלגיה XC40P6 RECHARGE 2023 01/09/2026 23:07:23
1672437 טויוטה צרפת YARIS 2016 01/09/2026 23:07:23
9120534 דוקאטי איטליה - 2017 01/09/2026 23:07:20
92511101 קיה קוריאה הדרומית RIO 2015 01/09/2026 23:07:20
45272501 טויוטה יפן RAV 4 HYBRID 2018 01/09/2026 23:07:19
44376401 טויוטה טורקיה COROLLA 2018 01/09/2026 23:07:09
4397571 מזדה יפן MAZDA 5 2010 01/09/2026 23:07:07
4942039 פיג'ו צרפת 2008 2016 01/09/2026 23:07:06
14472703 טויוטה טורקיה COROLLA SEDAN 2022 01/09/2026 23:07:01
9301978 לקסוס יפן - 2015 01/09/2026 23:06:59
3270278 הונדה יפן ACCORD 2011 01/09/2026 23:06:58
3091937 טויוטה ארהב" CAMRY HYBRID 2016 01/09/2026 23:06:56
4306529 רנו צרפת KANGOO 2000 01/09/2026 23:06:55
1362584 טויוטה תאילנד HILUX 2017 01/09/2026 23:06:55
72635301 קרייזלר ארהב" GRAND CHEROKEE 2019 01/09/2026 23:06:52
77550303 טסלה סין MODEL 3 2024 01/09/2026 23:06:49
84896802 ב מ וו ארהב" X6 M COMPETITIO 2022 01/09/2026 23:06:47
2835358 סקניה-הולנד - 2017 01/09/2026 23:06:44
76860401 רנו טורקיה MEGANE 2019 01/09/2026 23:06:41
9631112 סוזוקי הונגריה SWIFT 2013 01/09/2026 23:06:39
3775470 טויוטה יפן LAND CRUISER 2010 01/09/2026 23:06:39
2150012 סקודה צ'כיה SUPERB 2012 01/09/2026 23:06:37
27700701 פרארי איטליה GTC4LUSSO T 2017 01/09/2026 23:06:35
2059634 יונדאי קוריאה הדרומית SANTA FE 2015 01/09/2026 23:06:33
7548132 סוזוקי הונגריה SX4 CROSSOVER 2014 01/09/2026 23:06:28
2887700 פולקסווגן גרמניה ונטו 0091 4דלת' אוטו 1998 01/09/2026 23:06:27
84618301 יונדאי קוריאה הדרומית ELANTRA 2020 01/09/2026 23:06:26
24617501 וולבו בלגיה - 2018 01/09/2026 23:06:26
43437803 פיאט איטליה - 2023 01/09/2026 23:06:23
4588013 שברולט קוריאה הדרומית CRUZE 1.6 LS 2012 01/09/2026 23:06:21
1867311 מרצדס גרמניה E300 2013 01/09/2026 23:06:21
1864612 סיאט ספרד MII 2012 01/09/2026 23:06:19
6769679 לקסוס יפן LEXUS RX350 2012 01/09/2026 23:06:18
30205201 מזדה תאילנד MAZDA 2 2018 01/09/2026 23:06:18
66988604 שברולט ארהב" - 2026 01/09/2026 23:06:18
34115004 טויוטה ספרד TOYOTA CITY 2025 01/09/2026 23:06:17
66292802 טויוטה טורקיה COROLLA HSD SDN 2021 01/09/2026 23:06:16
66292802 טויוטה טורקיה COROLLA HSD SDN 2021 01/09/2026 23:06:15
7943686 טויוטה טורקיה COROLLA 2017 01/09/2026 23:06:15
60194403 רנו טורקיה MEGANE 2024 01/09/2026 23:06:14
4257018 אופל בלגיה אסטרה 6.1, 4 דלתות , 1997 01/09/2026 23:06:14
4659130 טויוטה יפן PRIUS HYBRID 2014 01/09/2026 23:06:12
5072439 פולריס - 2017 01/09/2026 23:06:12
50409903 ג'יפ ארהב" GRAND WAGONEER 2024 01/09/2026 23:06:10
13106801 קיה סלובקיה SPORTAGE 2017 01/09/2026 23:06:09
14472703 טויוטה טורקיה COROLLA SEDAN 2022 01/09/2026 23:06:09
1818033 ניסאן מקסיקו ALMERA 2015 01/09/2026 23:06:01
3818771 מזדה יפן MAZDA 3 2010 01/09/2026 23:05:49
26337703 סיאט ספרד CUPRA 2023 01/09/2026 23:05:48
57500304 קוואסאקי תאילנ - 2026 01/09/2026 23:05:47
3046380 סקודה צ'כיה NEW SUPERB 2017 01/09/2026 23:05:44
6652763 אביב סוכנויות - 2008 01/09/2026 23:05:43
19058703 איווייס סין U5 2022 01/09/2026 23:05:42
1101031 בומברדיה קנדה - 2015 01/09/2026 23:05:41
11307604 דאציה מרוקו SANDERO STEPWAY 2024 01/09/2026 23:05:40
30205201 מזדה תאילנד MAZDA 2 2018 01/09/2026 23:05:37
5139439 קי טי אם הודו - 2017 01/09/2026 23:05:36
57883602 מזדה יפן MAZDA 3 2021 01/09/2026 23:05:33
25085201 שברולט קוריאה הדרומית SPARK 2018 01/09/2026 23:05:31
80616401 טויוטה יפן LAND CRUISER 2019 01/09/2026 23:05:29
2305415 סגנון נתניה - 1998 01/09/2026 23:05:28
7035064 דייהטסו יפן TERIOS 2008 01/09/2026 23:05:24
4179774 טויוטה יפן PRIUS HYBRID 2011 01/09/2026 23:05:23
47883202 קואנג יאנג טיו - 2022 01/09/2026 23:05:22
63992103 סקודה צ'כיה SCALA 2024 01/09/2026 23:05:16
66292802 טויוטה טורקיה COROLLA HSD SDN 2021 01/09/2026 23:05:15
52506603 קיו ג'יי מוטור - 2023 01/09/2026 23:05:12
8205308 ב מ וו גרמניה - 1995 01/09/2026 23:05:04
81527301 מאן פולין - 2020 01/09/2026 23:05:04
58785303 ב מ וו גרמניה - 2024 01/09/2026 23:05:03
22547903 פורד ארהב" MUSTANG 2023 01/09/2026 23:05:00
6769679 לקסוס יפן LEXUS RX350 2012 01/09/2026 23:05:00
87618101 מרצדס הונגריה CLA250 2020 01/09/2026 23:04:59
63771703 בי ווי די סין ATTO 3 2024 01/09/2026 23:04:58
28738703 סקניה צרפת - 2025 01/09/2026 23:04:57
39397203 ב מ וו גרמניה - 2023 01/09/2026 23:04:54
7954776 פולקסווגן ספרד POLO 2012 01/09/2026 23:04:52
4687566 יונדאי טורקיה ACCENT 2008 01/09/2026 23:04:52
4639264 רנו טורקיה MEGANE II 2008 01/09/2026 23:04:51
83743702 סיאט ספרד CUPRA 2022 01/09/2026 23:04:51
1166662 טויוטה יפן LEXUS IS 250 2007 01/09/2026 23:04:49
53159004 שברולט ארהב" CORVETTE STINGR 2025 01/09/2026 23:04:48
5896978 שברולט ארהב" - 2012 01/09/2026 23:04:44
6046750 איסוזו ארהב" RODEO 2002 01/09/2026 23:04:44
86854003 רנו צרפת TRAFIC 2024 01/09/2026 23:04:43
1233750 טויוטה יפן HILUX 2003 01/09/2026 23:04:43
7648865 מזדה יפן MAZDA 3 2008 01/09/2026 23:04:42
1500110 רנו ספרד CLIO B 2001 01/09/2026 23:04:40
30205201 מזדה תאילנד MAZDA 2 2018 01/09/2026 23:04:27
78788301 הונדה יפן CR-V 2020 01/09/2026 23:04:26
7943686 טויוטה טורקיה COROLLA 2017 01/09/2026 23:04:23
32811603 ניסאן מקסיקו SENTRA 2023 01/09/2026 23:04:23
83991902 סיאט ספרד CUPRA 2022 01/09/2026 23:04:19
31851504 יונדאי קוריאה הדרומית KONA HYBRID 2025 01/09/2026 23:04:18
8269438 קיה סלובקיה SPORTAGE 2016 01/09/2026 23:04:17
49111902 קימקו סין - 2024 01/09/2026 23:04:16
56791802 סיאט ספרד LEON 2021 01/09/2026 23:04:16
9638531 ניסאן בריטניה QASHQAI 2014 01/09/2026 23:04:14
44536301 טויוטה טורקיה COROLLA 2018 01/09/2026 23:04:13
73710002 קיה קוריאה הדרומית NIRO PHEV 2021 01/09/2026 23:04:13
22186701 יגואר בריטניה E-PACE 2019 01/09/2026 23:04:07
74257702 קיה קוריאה הדרומית PICANTO 2022 01/09/2026 23:04:06
9252953 שברולט קוריאה הדרומית CRUZE 2013 01/09/2026 23:04:03
61858503 ימהה יפן - 2024 01/09/2026 23:04:03
54756603 קיה קוריאה הדרומית NIRO HEV 2023 01/09/2026 23:04:03
39424103 פורד ארהב" BRONCO BADLANDS 2023 01/09/2026 23:04:03
3021835 סיטרואן צרפת BERLINGO 2001 01/09/2026 23:04:01
65106901 גולדן דרגון סי - 2019 01/09/2026 23:04:01
44626801 טויוטה טורקיה VERSO 2018 01/09/2026 23:03:55
9638531 ניסאן בריטניה QASHQAI 2014 01/09/2026 23:03:55
3761760 פולקסווגן גרמניה GOLF 2007 01/09/2026 23:03:55
22335202 טויוטה יפן LAND CRUISER 2020 01/09/2026 23:03:50
2067964 דימלרקריזלר-גר - 2009 01/09/2026 23:03:48
85327701 סאן יאנג טיואן - 2019 01/09/2026 23:03:48
6912057 איסוזו יפן TROOPER 2004 01/09/2026 23:03:45
43705804 ב מ וו ארהב" X6M COMPETITION 2025 01/09/2026 23:03:43
13106801 קיה סלובקיה SPORTAGE 2017 01/09/2026 23:03:42
4300555 ב מ וו גרמניה 118I 2017 01/09/2026 23:03:40
11262103 יונדאי קוריאה הדרומית SONATA HYBRID 2022 01/09/2026 23:03:40
56791902 סיאט ספרד LEON 2021 01/09/2026 23:03:38
7519832 קרייזלר ארהב" JEEP CHEROKEE 2015 01/09/2026 23:03:30
9651222 הונדה קנדה - 2015 01/09/2026 23:03:29
44799303 פורשה גרמניה 911 GT3 2023 01/09/2026 23:03:28
56791802 סיאט ספרד LEON 2021 01/09/2026 23:03:23
9638531 ניסאן בריטניה QASHQAI 2014 01/09/2026 23:03:22
2217965 פורד תורכיה TOURNEO CONNECT 2008 01/09/2026 23:03:22
65569003 טסלה סין MODEL 3 2023 01/09/2026 23:03:18
4380032 טויוטה יפן RAV 4 2015 01/09/2026 23:03:17
1271623 סובארו יפן אימפרזה 0061 TA 1998 01/09/2026 23:03:17
4892566 יונדאי קוריאה הדרומית I30 2009 01/09/2026 23:03:16
9233772 מרכבי נוע בעמ - 2011 01/09/2026 23:03:16
7173637 ניסאן בריטניה JUKE 2016 01/09/2026 23:03:15
19643101 ניסאן יפן X-TRAIL 2018 01/09/2026 23:03:14
וואטסאפ